Overview Statistics Trail Chart Weather Telemetry Raw packets
 

This is the latest recevied weather packets stored in our database for station/object N7ZAP. If no packets are shown the sender has not sent any weather packets the latest 10 day(s).

<< 78 79 80 81 82 83 84 >>
Time Temp. Humidity Pressure Rain* Wind** Luminosity Snow
1788127946 35.56° C 20% 1018.4 hPa 0 mm - - -
1788127641 35° C 20% 1018.3 hPa 0 mm - - -
1788127339 35° C 21% 1018.5 hPa 0 mm - - -
1788127039 35° C 20% 1018.3 hPa 0 mm - - -
1788126734 36.11° C 20% 1018.3 hPa 0 mm - - -
1788126429 36.67° C 20% 1018.8 hPa 0 mm - - -
1788126129 36.67° C 19% 1018.5 hPa 0 mm - - -
1788125828 37.22° C 19% 1018.8 hPa 0 mm - - -
1788125523 37.22° C 19% 1019 hPa 0 mm - - -
1788125219 36.67° C 19% 1018.9 hPa 0 mm - - -
1788124915 37.22° C 19% 1018.8 hPa 0 mm - - -
1788124614 36.11° C 20% 1018.8 hPa 0 mm - - -
1788124313 35° C 22% 1018.7 hPa 0 mm - - -
1788124009 35.56° C 20% 1019.1 hPa 0 mm - - -
1788123708 35.56° C 21% 1019 hPa 0 mm - - -
1788123406 36.11° C 20% 1019.1 hPa 0 mm - - -
1788123101 37.22° C 18% 1019 hPa 0 mm - - -
1788122801 37.22° C 19% 1019.5 hPa 0 mm - - -
1788122500 36.11° C 20% 1019.6 hPa 0 mm - - -
1788122197 36.11° C 20% 1019.5 hPa 0 mm - - -
1788121897 36.11° C 20% 1019.6 hPa 0 mm - - -
1788121596 35.56° C 21% 1019.7 hPa 0 mm - - -
1788121292 35.56° C 21% 1019.9 hPa 0 mm - - -
1788120992 35.56° C 21% 1019.8 hPa 0 mm - - -
1788120687 35.56° C 22% 1020.4 hPa 0 mm - - -

* Rain latest hour (hover to see other rain measurements)
** Current wind speed in m/s (hover to see current wind gust speed)